Location: Tel Aviv
(32.0670°N, 34.7670°E)
Time: 06:46:53
(UTC+03:00)

XW-2D - Visible Passes

Search period start: 19 September 2024 00:00
Search period end: 29 September 2024 00:00
Orbit: 367 x 368 km, 97.5° (Epoch: 18 September)

Date Brightness Start Highest point End Pass type
(mag) Time Alt. Az. Time Alt. Az. Time Alt. Az.
19 Sep ? 19:46:20 10° S 19:49:08 47° W 19:51:58 10° NNW visible
20 Sep ? 20:18:10 10° SW 20:19:53 15° W 20:21:35 10° WNW visible
21 Sep ? 19:16:32 10° SSE 19:19:16 40° ENE 19:22:01 10° N visible
22 Sep ? 19:46:38 10° S 19:49:25 49° W 19:52:13 10° NNW visible
23 Sep ? 20:17:40 10° SW 20:19:26 15° W 20:21:13 10° WNW visible
24 Sep ? 19:15:30 10° SE 19:18:11 37° ENE 19:20:52 10° N visible
25 Sep ? 19:44:49 10° S 19:47:37 55° W 19:50:26 10° NNW visible
26 Sep ? 20:14:58 10° SW 20:16:55 17° W 20:18:53 10° NW visible
27 Sep ? 19:12:28 10° SE 19:15:01 31° ENE 19:17:35 10° N visible
28 Sep ? 19:40:55 10° S 19:43:44 70° WSW 19:46:34 10° NNW visible
